Location: Fort Wayne
(41.1310°N, 85.1290°W)
Time: 02:03:21
(UTC-04:00)

Vanguard 3 - Visible Passes

Search period start: 24 May 2016 00:00
Search period end: 03 June 2016 00:00
Orbit: 509 x 3267 km, 33.4° (Epoch: 23 May)

Date Brightness Start Highest point End Pass type
(mag) Time Alt. Az. Time Alt. Az. Time Alt. Az.
24 May 10.3 00:09:51 10° W 00:26:17 38° SW 00:32:38 32° S visible
24 May 11.1 02:32:48 10° WSW 02:37:11 12° WSW 02:37:11 12° WSW visible
24 May 10.3 22:54:15 10° W 23:10:42 48° SSW 23:22:41 25° SSE visible
25 May 10.7 01:11:44 10° W 01:25:05 23° SW 01:27:15 23° SW visible
25 May 10.2 21:39:36 10° W 21:54:48 57° SSW 22:12:48 13° SE visible
25 May 10.5 23:54:37 10° W 00:10:04 34° SW 00:17:21 27° S visible
26 May 10.4 22:39:07 10° W 22:54:33 44° SSW 23:07:30 21° SSE visible
27 May 10.9 00:57:00 10° W 01:08:54 20° SW 01:12:03 19° SSW visible
27 May 10.2 21:24:38 10° W 21:38:49 53° SSW 21:57:41 10° SE visible
27 May 10.7 23:39:37 10° W 23:53:53 30° SW 00:02:15 23° S visible
28 May 10.5 22:24:09 10° W 22:38:29 40° SSW 22:52:30 17° SSE visible
29 May 11.0 00:42:47 10° WSW 00:52:47 17° SW 00:57:04 15° SSW visible
29 May 10.2 21:09:46 10° W 21:22:57 49° SSW 21:41:16 10° SE visible
29 May 10.8 23:24:52 10° W 23:37:47 26° SW 23:47:22 18° S visible
30 May 10.6 22:09:20 10° W 22:22:31 36° SSW 22:37:42 13° SSE visible
31 May 11.2 00:29:31 10° WSW 00:36:46 13° SW 00:42:17 12° SSW visible
31 May 10.9 23:10:28 10° W 23:21:49 22° SW 23:32:41 13° S visible
01 Jun 10.7 21:54:45 10° W 22:06:40 31° SSW 22:22:08 10° SSE visible
02 Jun 11.1 22:56:32 10° WSW 23:05:58 18° SW 23:16:55 10° S visible
